TimeEST,TemperatureF,Dew PointF,Humidity,Sea Level PressureIn,VisibilityMPH,Wind Direction,Wind SpeedMPH,Gust SpeedMPH,PrecipitationIn,Events,Conditions,WindDirDegrees,DateUTC
12:14 AM,5.4,1.0,82,29.97,10.0,North,8.1,-,N/A,,Clear,10,2013-12-16 05:14:00
12:34 AM,4.8,0.7,83,29.97,10.0,North,8.1,-,N/A,,Clear,360,2013-12-16 05:34:00
12:54 AM,4.1,-0.0,83,29.98,10.0,North,5.8,-,N/A,,Clear,10,2013-12-16 05:54:00
1:14 AM,3.9,-0.2,83,29.99,7.0,North,5.8,-,N/A,,Mostly Cloudy,10,2013-12-16 06:14:00
1:34 AM,4.6,0.3,82,30.00,5.0,North,8.1,-,N/A,Snow,Light Snow,10,2013-12-16 06:34:00
1:54 AM,4.1,-0.4,82,30.00,7.0,NNE,6.9,-,N/A,,Mostly Cloudy,20,2013-12-16 06:54:00
2:14 AM,3.2,-1.8,80,30.01,10.0,NNE,10.4,-,N/A,,Clear,30,2013-12-16 07:14:00
2:34 AM,2.8,-2.0,80,30.02,10.0,NE,9.2,-,N/A,,Clear,40,2013-12-16 07:34:00
2:54 AM,2.3,-2.4,81,30.03,10.0,NNE,8.1,-,N/A,,Clear,20,2013-12-16 07:54:00
3:14 AM,1.9,-2.6,81,30.04,10.0,NNE,9.2,-,N/A,,Clear,20,2013-12-16 08:14:00
3:34 AM,1.4,-2.7,83,30.04,10.0,NNE,6.9,-,N/A,,Clear,20,2013-12-16 08:34:00
3:54 AM,1.4,-2.9,82,30.05,10.0,NNE,8.1,-,N/A,,Clear,20,2013-12-16 08:54:00
4:15 AM,1.2,-3.1,82,30.05,10.0,NNE,9.2,-,N/A,,Clear,30,2013-12-16 09:15:00
4:34 AM,1.0,-3.8,80,30.05,10.0,NNE,9.2,-,N/A,,Clear,30,2013-12-16 09:34:00
4:54 AM,0.5,-3.8,82,30.05,10.0,NNE,6.9,-,N/A,,Clear,20,2013-12-16 09:54:00
5:15 AM,0.5,-3.5,83,30.05,10.0,NNE,5.8,-,N/A,,Clear,20,2013-12-16 10:15:00
5:34 AM,0.1,-4.0,83,30.05,10.0,NNE,6.9,-,N/A,,Scattered Clouds,30,2013-12-16 10:34:00
5:54 AM,0.5,-3.3,84,30.06,7.0,NNE,4.6,-,N/A,Snow,Light Snow,20,2013-12-16 10:54:00
6:15 AM,-0.2,-4.2,83,30.07,10.0,NE,8.1,-,N/A,,Mostly Cloudy,40,2013-12-16 11:15:00
6:34 AM,-0.4,-4.9,81,30.07,10.0,NE,6.9,-,N/A,,Scattered Clouds,40,2013-12-16 11:34:00
6:54 AM,-0.9,-5.4,81,30.07,10.0,NE,6.9,-,N/A,,Clear,40,2013-12-16 11:54:00
7:15 AM,-0.0,-5.3,79,30.08,10.0,NE,4.6,-,N/A,,Clear,40,2013-12-16 12:15:00
7:34 AM,-2.7,-7.2,81,30.08,10.0,NE,3.5,-,N/A,,Clear,40,2013-12-16 12:34:00
7:54 AM,-4.5,-8.7,82,30.09,10.0,NNE,4.6,-,N/A,,Clear,30,2013-12-16 12:54:00
8:15 AM,-3.5,-7.2,84,30.10,10.0,NNE,4.6,-,N/A,,Clear,30,2013-12-16 13:15:00
8:34 AM,-3.6,-7.4,84,30.10,2.0,NNE,5.8,-,N/A,,Clear,20,2013-12-16 13:34:00
8:54 AM,-1.5,-5.3,84,30.10,10.0,NNE,4.6,-,N/A,,Clear,30,2013-12-16 13:54:00
9:14 AM,0.9,-3.1,83,30.11,10.0,NE,5.8,-,N/A,,Clear,50,2013-12-16 14:14:00
9:34 AM,2.3,-3.3,77,30.11,10.0,ENE,3.5,-,N/A,,Clear,60,2013-12-16 14:34:00
9:55 AM,4.6,-1.5,76,30.12,10.0,Calm,Calm,-,N/A,,Clear,0,2013-12-16 14:55:00
10:14 AM,6.1,-0.0,76,30.12,10.0,Calm,Calm,-,N/A,,Clear,0,2013-12-16 15:14:00
10:34 AM,6.4,0.3,76,30.12,10.0,SE,3.5,-,N/A,,Clear,130,2013-12-16 15:34:00
10:55 AM,7.7,1.6,76,30.12,10.0,SSE,3.5,-,N/A,,Clear,150,2013-12-16 15:55:00
11:14 AM,7.7,2.7,80,30.12,1.0,Calm,Calm,-,N/A,Snow,Light Snow,0,2013-12-16 16:14:00
11:34 AM,8.4,4.1,83,30.11,1.0,SE,4.6,-,N/A,Snow,Light Snow,130,2013-12-16 16:34:00
11:55 AM,8.6,3.7,81,30.09,2.0,SE,6.9,-,N/A,Snow,Light Snow,130,2013-12-16 16:55:00
12:14 PM,8.6,4.1,82,30.09,1.8,SE,3.5,-,N/A,Snow,Light Snow,130,2013-12-16 17:14:00
12:34 PM,9.3,4.6,81,30.08,2.5,SE,5.8,-,N/A,Snow,Light Snow,130,2013-12-16 17:34:00
12:54 PM,10.0,4.8,79,30.08,4.0,SSE,5.8,-,N/A,Snow,Light Snow,150,2013-12-16 17:54:00
1:14 PM,10.2,4.8,79,30.07,5.0,SSE,3.5,-,N/A,Snow,Light Snow,150,2013-12-16 18:14:00
1:34 PM,10.0,4.6,79,30.06,10.0,ESE,3.5,-,N/A,Snow,Light Snow,120,2013-12-16 18:34:00
1:54 PM,10.2,4.1,76,30.06,10.0,South,4.6,-,N/A,,Mostly Cloudy,170,2013-12-16 18:54:00
2:14 PM,10.6,3.7,74,30.06,10.0,ESE,3.5,-,N/A,,Scattered Clouds,120,2013-12-16 19:14:00
2:35 PM,10.8,3.9,74,30.06,10.0,SE,4.6,-,N/A,,Clear,130,2013-12-16 19:35:00
2:54 PM,10.4,4.1,76,30.05,10.0,ESE,6.9,-,N/A,,Scattered Clouds,120,2013-12-16 19:54:00
3:14 PM,11.3,4.1,73,30.05,10.0,SE,5.8,-,N/A,,Clear,130,2013-12-16 20:14:00
3:35 PM,10.8,3.7,73,30.05,10.0,SE,3.5,-,N/A,,Clear,130,2013-12-16 20:35:00
3:54 PM,11.5,3.7,71,30.05,10.0,SE,8.1,-,N/A,,Clear,130,2013-12-16 20:54:00
4:14 PM,11.1,3.2,70,30.05,10.0,SE,5.8,-,N/A,,Clear,130,2013-12-16 21:14:00
4:35 PM,10.9,3.6,72,30.05,10.0,SE,5.8,-,N/A,,Clear,130,2013-12-16 21:35:00
4:54 PM,10.4,3.4,73,30.04,10.0,SE,5.8,-,N/A,,Clear,130,2013-12-16 21:54:00
5:14 PM,10.2,3.7,75,30.05,10.0,SE,5.8,-,N/A,,Clear,130,2013-12-16 22:14:00
5:34 PM,10.4,3.9,75,30.04,10.0,SE,6.9,-,N/A,,Clear,130,2013-12-16 22:34:00
5:54 PM,10.9,4.8,76,30.03,10.0,SE,6.9,-,N/A,,Scattered Clouds,130,2013-12-16 22:54:00
6:14 PM,11.1,4.8,76,30.02,10.0,ESE,6.9,-,N/A,,Scattered Clouds,120,2013-12-16 23:14:00
6:34 PM,11.7,5.0,75,30.01,10.0,SE,9.2,-,N/A,,Mostly Cloudy,130,2013-12-16 23:34:00
6:54 PM,12.2,5.5,75,30.01,10.0,SE,11.5,-,N/A,,Overcast,130,2013-12-16 23:54:00
7:14 PM,12.6,5.9,75,30.00,10.0,SE,10.4,-,N/A,,Overcast,130,2013-12-17 00:14:00
7:34 PM,12.7,6.6,77,29.98,10.0,ESE,12.7,19.6,N/A,,Overcast,120,2013-12-17 00:34:00
7:54 PM,12.6,7.3,80,29.98,10.0,SE,12.7,17.3,N/A,,Overcast,130,2013-12-17 00:54:00
8:14 PM,13.1,6.8,76,29.97,10.0,SE,12.7,17.3,N/A,,Overcast,130,2013-12-17 01:14:00
8:34 PM,13.1,6.6,75,29.96,10.0,SE,12.7,19.6,N/A,,Overcast,140,2013-12-17 01:34:00
8:54 PM,13.1,7.5,78,29.95,10.0,SSE,12.7,19.6,N/A,,Overcast,150,2013-12-17 01:54:00
9:15 PM,13.1,7.5,78,29.94,4.0,SSE,12.7,23.0,N/A,Snow,Light Snow,150,2013-12-17 02:15:00
9:34 PM,13.6,9.5,84,29.94,1.8,SSE,12.7,24.2,N/A,Snow,Light Snow,160,2013-12-17 02:34:00
9:54 PM,13.6,10.2,86,29.93,1.2,SSE,16.1,24.2,N/A,Snow,Light Snow,160,2013-12-17 02:54:00
10:14 PM,13.8,10.8,88,29.93,1.8,South,13.8,23.0,N/A,Snow,Light Snow,170,2013-12-17 03:14:00
10:34 PM,14.2,11.1,88,29.92,1.2,SSE,15.0,23.0,N/A,Snow,Snow,160,2013-12-17 03:34:00
10:55 PM,14.7,11.7,88,29.92,2.0,SSE,12.7,21.9,N/A,Snow,Light Snow,160,2013-12-17 03:55:00
11:14 PM,14.7,11.3,86,29.91,4.0,South,15.0,21.9,N/A,Snow,Light Snow,170,2013-12-17 04:14:00
11:34 PM,14.7,11.5,87,29.90,4.0,South,10.4,23.0,N/A,Snow,Light Snow,170,2013-12-17 04:34:00
11:55 PM,14.9,11.7,87,29.89,4.0,SSE,15.0,23.0,N/A,Snow,Light Snow,160,2013-12-17 04:55:00